Miscellaneous Local Product
Issued by NWS Hastings, NE

Home | Current Version | Previous Version | Graphics & Text | Print | Product List | Glossary On
Versions: 1 2 3 4 5 6 7 8 9 10 11 12 13 14 15 16 17 18 19 20 21 22 23 24 25 26 27 28 29 30 31 32 33 34 35 36 37 38 39 40 41 42 43 44 45 46 47 48 49 50
000
AXUS43 KGID 260402
MISGRI

GID CWA HOURLY WEATHER ROUNDUP
NATIONAL WEATHER SERVICE HASTINGS NE
1100 PM CDT FRI JUL 25 2014

NOTE: "FAIR" INDICATES FEW OR NO CLOUDS BELOW 12,000 FEET WITH NO
SIGNIFICANT WEATHER AND/OR OBSTRUCTIONS TO VISIBILITY.

...SOUTH CENTRAL NEBRASKA...

CITY           SKY/WX    TMP DP  RH WIND       PRES   REMARKS
GRAND ISLAND   CLOUDY    75  72  90 E3        29.84R
HASTINGS       CLOUDY    78  70  76 CALM      29.84R
KEARNEY        CLOUDY    73  68  83 SE5       29.86R
ORD            CLOUDY    76  72  87 N5        29.86R
YORK           PTCLDY    75  75 100 CALM      29.82S FOG
AURORA         MOCLDY    75  75  99 CALM      29.83R FOG
LEXINGTON      MOCLDY    74  71  89 N7        29.88R
HOLDREGE       MOCLDY    74  69  82 CALM      29.86R
HEBRON         PTCLDY    76  71  85 CALM      29.81R

...NEBRASKA PANHANDLE...

CITY           SKY/WX    TMP DP  RH WIND       PRES   REMARKS
CHADRON        CLEAR     80  54  40 S24G38    29.81F
ALLIANCE       PTCLDY    69  58  67 S12       29.93F
SCOTTSBLUFF    PTCLDY    69  62  78 E8        29.95R
SIDNEY         CLOUDY    72  57  59 S9        30.02R

...WESTERN AND NORTH CENTRAL NEBRASKA...

CITY           SKY/WX    TMP DP  RH WIND       PRES   REMARKS
VALENTINE      MOCLDY    77  60  55 E8        29.87S
AINSWORTH      CLOUDY    76  67  73 SE5       29.88S
ONEILL         PTCLDY    77  69  75 NE12      29.88R
BROKEN BOW     CLOUDY    76  71  85 NW5       29.91R
IMPERIAL       CLOUDY    78  67  68 CALM      29.95R
NORTH PLATTE   CLOUDY    80  68  66 N6        29.93R
MCCOOK         MOCLDY    78  68  71 CALM      29.89R

...EASTERN NEBRASKA...

CITY           SKY/WX    TMP DP  RH WIND       PRES   REMARKS
NORFOLK        CLOUDY    78  73  84 E3        29.82R
SO SIOUX CITY  MOCLDY    78  73  84 E5        29.80S
COLUMBUS       MOCLDY    75  73  94 N3        29.82R
ALBION         CLOUDY    76  73  90 CALM      29.84S
OMAHA EPPLEY   MOCLDY    80  74  81 E6        29.78R
OFFUTT AFB     CLEAR     79  78  99 NE7       29.77R
MILLARD        CLEAR     83  77  82 CALM      29.77R HX  92
LINCOLN        PTCLDY    80  75  84 CALM      29.79R
NEBRASKA CITY  CLEAR     82  75  81 NW6       29.77S
BEATRICE       CLEAR     79  75  87 CALM      29.80R
FALLS CITY     CLEAR     85  72  65 W7        29.76R HX  91

...NORTHERN KANSAS...

CITY           SKY/WX    TMP DP  RH WIND       PRES   REMARKS
GOODLAND       CLOUDY    80  65  59 S3        29.98R
HILL CITY      PTCLDY    82  69  64 NE8       29.85R
NORTON         CLEAR     75  64  69 CALM      29.86R
PHILLIPSBURG   CLEAR     84  68  58 N7        29.83R
SMITH CENTER   CLEAR     81  70  69 NE7       29.82R
HAYS           PTCLDY    82  68  61 NE3       29.84R
RUSSELL        PTCLDY    83  68  60 W3        29.81R
CONCORDIA      PTCLDY    84  75  74 NE5       29.80R HX  92
SALINA         CLEAR     90  60  36 S9        29.79R
TOPEKA         CLEAR     88  73  61 S14G23    29.79R HX  95



USA.gov is the U.S. government's official web portal to all federal, state and local government web resources and services.